Tracking 29892 objects as of 21-Nov-2024
HD Live streaming from Space Station
objects crossing your sky now

STARLINK-30294

Track STARLINK-30294 now!
10-day predictions
STARLINK-30294 is classified as:


NORAD ID: 57651
Int'l Code: 2023-122V
Perigee: 565.3 km
Apogee: 567.2 km
Inclination: 43.0 °
Period: 95.8 minutes
Semi major axis: 6937 km
RCS: Unknown
Launch date: August 17, 2023
Source: United States (US)
Launch site: AIR FORCE EASTERN TEST RANGE (AFETR)
Your satellite tracking list
Your tracking list is empty




NASA's NSSDC Master Catalog

Two Line Element Set (TLE):
1 57651U 23122V   24325.88861724 -.00000305  00000-0 -74941-5 0  9994
2 57651  43.0024 136.0906 0001346 267.4560  92.6128 15.02533112 71063
Source of the keplerian elements: AFSPC